Regional Weather Roundup
Issued by NWS Kansas City/Pleasant Hill, MO

Home | Current Version | Previous Version | Text Only | Print | Product List | Glossary On
Versions: 1 2 3 4 5 6 7 8 9 10 11 12 13 14 15 16 17 18 19 20 21 22 23 24 25 26 27 28 29 30 31 32 33 34 35 36 37 38 39 40 41 42 43 44 45 46 47 48 49 50
872
ASUS43 KEAX 221511
RWREAX

WEATHER ROUNDUP FOR EASTERN KANSAS AND NORTHWEST MISSOURI
NATIONAL WEATHER SERVICE KANSAS CITY/PLEASANT HILL MO
1000 AM CDT FRI MAY 22 2015

KSZ040-057-103>105-MOZ028-029-037-043-221600-
...KANSAS CITY METROPOLITAN AREA...

CITY           SKY/WX    TMP DP  RH WIND       PRES   REMARKS
K.C. INTL      CLOUDY    57  49  74 SW10      30.28R
K.C. DOWNTOWN  CLOUDY    61  49  64 SW6       30.28R
LEES SUMMIT    CLOUDY    59  48  67 SW12      30.29R
OLATHE - IXD   CLOUDY    57  49  74 S6        30.29S
OLATHE - OJC   CLOUDY    57  49  74 S5        30.28S
LAWRENCE       CLOUDY    55  50  83 CALM      30.29S

$$

MOZ001>008-011>017-020>025-030>033-038>040-044>046-053-054-221600-
...NORTHERN AND CENTRAL MISSOURI...

CITY           SKY/WX    TMP DP  RH WIND       PRES   REMARKS
ST. JOSEPH     CLOUDY    58  50  75 S3        30.26S
MOSBY          CLOUDY    61  50  67 CALM      30.27S
WARRENSBURG    CLOUDY    61  50  67 SW8       30.29R
WHITEMAN AFB   CLOUDY    62  50  63 SW8       30.28R
CLINTON        CLOUDY    59  52  77 SW7       30.31R
SEDALIA        CLOUDY    66  50  56 CALM      30.28R
WARSAW         NOT AVBL
CHILLICOTHE      N/A     64  53  67 SW3       30.27R
KIRKSVILLE     MOSUNNY   67  49  52 N6        30.24R

$$

MOZ041-047>049-056>058-063>065-088>090-097-221600-
...EASTERN AND SOUTHERN MISSOURI...

CITY           SKY/WX    TMP DP  RH WIND       PRES   REMARKS
ST. LOUIS INTL MOSUNNY   67  49  52 W7        30.25S
SPIRIT OF STL  MOSUNNY   64  49  57 W6        30.25R
COLUMBIA       MOSUNNY   67  49  52 NW7       30.26R
JEFFERSON CITY MOSUNNY   65  48  54 NW5       30.27R
ROLLA          SUNNY     63  48  58 NW3       30.27R
OSAGE BEACH    MOSUNNY   63  48  59 S6        30.30R
SPRINGFIELD    PTSUNNY   60  46  59 S10       30.31R
BRANSON        PTSUNNY   59  46  63 SE5       30.32R
JOPLIN         CLOUDY    61  49  64 S9        30.30S
WEST PLAINS    SUNNY     59  47  64 CALM      30.32R

$$

IAZ060-094-KSZ022-034>040-054-083-096-NEZ052-066-093-221600-
...KANSAS...SOUTHEAST NEBRASKA AND IOWA...

CITY           SKY/WX    TMP DP  RH WIND       PRES   REMARKS
TOPEKA         CLOUDY    56  50  80 E3        30.29R
MANHATTAN      CLOUDY    55  51  86 NE3       30.26R
EMPORIA        CLOUDY    55  48  77 S9        30.27R
CHANUTE        CLOUDY    56  50  80 S6        30.29S
WICHITA        LGT RAIN  53  49  86 SE16      30.19F
OMAHA          CLOUDY    62  44  51 S3        30.24R
LINCOLN        CLOUDY    58  47  66 CALM      30.25R
FALLS CITY       N/A     57  48  72 CALM      30.25S
LAMONI         PTSUNNY   68  48  48 NW6       30.24R
DES MOINES     CLOUDY    67  43  41 NW5       30.22R

$$




USA.gov is the U.S. government's official web portal to all federal, state and local government web resources and services.